Home > Weather > Leverkusen > Past weeks

Flag for Germany Weather for the Past 2 Weeks in Leverkusen, North Rhine-Westphalia, Germany

Now
46 °F

Passing clouds.


Feels Like: 42 °F
Forecast: 44 / 51 °F
Wind: 9 mph from Southwest

Location: Koeln / Bonn

Current Time: Feb 7, 2016 at 6:59:51 PM

Latest Report: Feb 7, 2016 at 6:20 PM


Visibility: N/A

Pressure: 29.65 "Hg

Humidity: 62%

Dew point: 34 °F

Location of LeverkusenLocation

Historic Weather in Leverkusen — Graph

°F

Leverkusen Temperature Yesterday

Maximum temperature yesterday: 54 °F (at 1:20 PM)
Minimum temperature yesterday: 43 °F (at 7:50 AM)
Average temperature yesterday: 48 °F

High & Low Weather Summary for the Past Weeks

 TemperatureHumidityPressure
High57 °F (Jan 25, 2:50 PM)100% (Jan 24, 4:20 PM)30.57 "Hg (Jan 24, 4:20 PM)
Low32 °F (Jan 29, 3:20 AM)55% (Jan 27, 3:20 PM)29.50 "Hg (Feb 7, 5:20 AM)
Average46 °F82%30.10 "Hg
* Reported Jan 23 5:20 PM — Feb 7 5:20 PM, Leverkusen, Weather by CustomWeather, © 2016

Note: Actual official high and low records may vary slightly from our data, if they occured in-between our weather recording intervals... More about our weather records

Advertising

Leverkusen Weather History for the Previous 24 Hours

 ConditionsComfort  
Time TempWeatherWind HumidityBarometerVisibility
5:20 PM
Sun, Feb 7
48 °FScattered clouds.14 mph58%29.65 "HgN/A
4:20 PM48 °FBroken clouds.14 mph62%29.62 "HgN/A
3:50 PM48 °FBroken clouds.17 mph62%29.62 "HgN/A
3:20 PM50 °FPartly sunny.13 mph58%29.62 "HgN/A
2:50 PM50 °FPartly sunny.15 mph58%29.59 "HgN/A
2:20 PM50 °FPartly sunny.9 mph71%29.59 "HgN/A
1:50 PM48 °FPartly sunny.12 mph76%29.59 "HgN/A
1:20 PM48 °FBroken clouds.10 mph76%29.59 "HgN/A
12:50 PM46 °FLight rain. Partly sunny.12 mph82%29.59 "HgN/A
12:20 PM46 °FPartly sunny.10 mph82%29.59 "HgN/A
11:50 AM46 °FLight rain. Partly sunny.16 mph82%29.56 "HgN/A
11:20 AM48 °FLight rain. Partly sunny.17 mph71%29.56 "HgN/A
10:50 AM50 °FBroken clouds.15 mph71%29.53 "HgN/A
10:20 AM50 °FBroken clouds.15 mph71%29.53 "HgN/A
9:50 AM52 °FBroken clouds.14 mph72%29.50 "HgN/A
9:20 AM52 °FBroken clouds.13 mph72%29.50 "HgN/A
8:50 AM52 °FPartly sunny.14 mph72%29.50 "HgN/A
8:20 AM52 °FBroken clouds.14 mph67%29.50 "HgN/A
7:50 AM54 °FPartly cloudy.20 mph63%29.50 "HgN/A
7:20 AM54 °FClear.15 mph63%29.50 "Hg10 mi
6:20 AM54 °FClear.17 mph58%29.50 "Hg10 mi
5:50 AM52 °FClear.15 mph62%29.50 "Hg10 mi
5:20 AM50 °FClear.16 mph67%29.50 "Hg10 mi
4:20 AM50 °FClear.17 mph67%29.53 "Hg10 mi
3:50 AM50 °FClear.15 mph67%29.53 "Hg10 mi
3:20 AM46 °FClear.12 mph76%29.53 "Hg10 mi
2:20 AM50 °FClear.12 mph67%29.56 "Hg10 mi
1:50 AM50 °FClear.13 mph67%29.59 "Hg10 mi
1:20 AM48 °FClear.12 mph71%29.59 "Hg10 mi
12:50 AM50 °FClear.12 mph67%29.59 "Hg10 mi
12:20 AM50 °FClear.13 mph67%29.62 "Hg10 mi
11:50 PM
Sat, Feb 6
50 °FClear.14 mph67%29.62 "Hg10 mi
11:20 PM48 °FClear.13 mph71%29.62 "Hg10 mi
10:50 PM48 °FClear.12 mph76%29.65 "Hg10 mi
9:50 PM50 °FClear.12 mph67%29.65 "Hg10 mi
9:20 PM50 °FClear.14 mph71%29.68 "Hg10 mi
8:50 PM48 °FClear.10 mph71%29.68 "Hg10 mi
8:20 PM48 °FClear.12 mph71%29.68 "Hg10 mi
7:50 PM48 °FClear.10 mph66%29.71 "Hg10 mi
7:20 PM50 °FClear.8 mph62%29.71 "Hg10 mi
6:50 PM52 °FClear.10 mph62%29.71 "Hg10 mi
6:20 PM48 °FClear.13 mph71%29.74 "Hg10 mi
Weather by CustomWeather, © 2016

See weather overviewHow to use our weather pages